Regional Weather Roundup
Issued by NWS

Home | Current Version | Previous Version | Text Only | Print | Product List | Glossary Off
Versions: 1 2 3 4 5 6 7 8 9 10 11 12 13 14 15 16 17 18 19 20 21 22 23 24 25 26 27 28 29 30 31 32 33 34 35 36 37 38 39 40 41 42 43 44 45 46 47 48 49 50

000
ASUS43 KLSX 282210
RWRMO

WEATHER SUMMARY FOR MISSOURI
NATIONAL WEATHER SERVICE SPRINGFIELD MO
500 PM CDT THU APR 28 2016

NOTE: "FAIR" INDICATES FEW OR NO CLOUDS BELOW 12,000 FEET WITH NO
       SIGNIFICANT WEATHER AND/OR OBSTRUCTIONS TO VISIBILITY.
       CURRENT SKY AND/OR WEATHER CONDITIONS ARE NOT AVAILABLE FOR
       CHILLICOTHE AND FARMINGTON.

MOZ001>031-035>038-043-044-053-054-282300-
...NORTHERN AND WESTERN MISSOURI...

CITY           SKY/WX    TMP DP  RH WIND       PRES   REMARKS
KANSAS CTY INT CLOUDY    55  46  71 W9        29.99R
KANSAS C DTWN  CLOUDY    60  47  61 NW10G17   29.98R
LEE`S SUMMIT   MOSUNNY   61  48  62 NW12      29.98R
ST JOSEPH      CLOUDY    55  45  68 NW10      29.98R
CHILLICOTHE      N/A     58  48  69 VRB6      29.97S
KIRKSVILLE     CLOUDY    58  46  64 W8G20     29.95R

$$
MOZ066>068-077>081-088>096-101>105-282300-
...SOUTHWEST MISSOURI...

CITY           SKY/WX    TMP DP  RH WIND       PRES   REMARKS
SPRINGFIELD    SUNNY     71  43  36 W3        29.96S
JOPLIN         SUNNY     69  48  47 N6        29.97S
BRANSON        MOSUNNY   75  39  27 NW6       29.96F

$$
MOZ032>034-039>042-045>050-055>058-069>072-282300-
...CENTRAL MISSOURI...

CITY           SKY/WX    TMP DP  RH WIND       PRES   REMARKS
COLUMBIA       SUNNY     64  51  62 NW12      29.95R
JEFFERSON CITY SUNNY     67  50  54 NW9       29.93R
ROLLA          SUNNY     70  48  45 W12       29.92R
SEDALIA        MOSUNNY   65  51  60 NW9       29.97R
WHITEMAN AFB   MOSUNNY   65  50  58 W6        29.95R
WARRENSBURG    PTSUNNY   63  50  63 NW8       29.95S
OSAGE BEACH    SUNNY     72  45  37 NW7       29.95R

$$
MOZ051-052-059>065-282300-
...EAST CENTRAL MISSOURI...

CITY           SKY/WX    TMP DP  RH WIND       PRES   REMARKS
ST LOUIS INTL  MOSUNNY   73  50  44 N9        29.90S
SPIRIT OF STL  MOSUNNY   72  50  45 W9G20     29.90R
ST CHARLES     SUNNY     71  50  47 W10       29.90R

$$
MOZ072>076-082>087-097>100-106>115-282300-
...SOUTH CENTRAL AND SOUTHEAST MISSOURI...

CITY           SKY/WX    TMP DP  RH WIND       PRES   REMARKS
CAPE GIRARDEAU MOSUNNY   76  47  35 W9        29.90R
FARMINGTON     SUNNY     76  44  32 W13G18    29.92R
POPLAR BLUFF   SUNNY     80  45  28 VRB7      29.91R
WEST PLAINS    SUNNY     77  40  26 W10       29.96R

$$




USA.gov is the U.S. government's official web portal to all federal, state and local government web resources and services.